METEOR 1-11

Satellite information

Favourite Embed

Satellite Type and Status

PAYLOADIN ORBIT

Key statistics

Satellite METEOR 1-11 at a glance.

Uptime

19396

Days in orbit

Revolutions

≈ 14.1

Per day

Orbit

LEO

Low Earth Orbit

Inclination

81.2

Latest

Satellite identification and parameters

Extended collection of information and parameters for METEOR 1-11.

Object identification

Identified? True

Debris? False

Object name: METEOR 1-11

International designator: 1972-022A

Object number (NORAD): 5917

Object ID (CCSDS): 5917

Country: COMMONWEALTH OF INDEPENDENT STATES (CIS)

Current information (Y/N): Y

RCS size: LARGE

Orbital parameters

Period: 102.189 minutes

Inclination: 81.2227 deg

SMA: 7240.414 km

Apoapsis: 890.34 km

Periapsis: 834.217 km

RAAN: 320.8693 deg

Eccentricy: 0.0038757

Argument of periapsis: 32.3963 deg

Mean anomaly: 327.9574 deg

Mean motion: 14.09151494 rev/day

Mean motion (dot): 0.00000322 rev/day2

B* drag term: 0.00017682 1/REarth

Two-line elements (TLE)

Creation date: May 7, 2025, 3:14 a.m.

Reference frame: TEME

Reference center: EARTH

Epoch: May 6, 2025, 10:24 p.m. UTC

TLE line 0: 0 METEOR 1-11

TLE line 1: 1 05917U 72022A 25126.93391285 .00000322 00000-0 17682-3 0 9995

TLE line 2: 2 05917 81.2227 320.8693 0038757 32.3963 327.9574 14.09151494727228

Live tracking on map

Real-time ground track for satellite METEOR 1-11.

In-orbit conjunctions

A list of the most updated potential collisions computed for object METEOR 1-11.

Target Orbit TCA Probability of collision Miss distance Type
FENGYUN 1C DEB SSO 2025-03-19 04:05:04 0.0001090281 573.0 (m) DEBRIS
SL-16 R/B LEO 2024-12-16 17:01:55 0.0008955286 77.0 (m) ROCKET BODY
CZ-6A DEB SSO 2024-11-03 15:42:39 0.000105289 319.0 (m) DEBRIS
FENGYUN 1C DEB SSO 2024-10-09 09:00:09 0.0008000073 92.0 (m) DEBRIS
CZ-6A DEB SSO 2024-09-26 19:18:35 0.001331287 222.0 (m) DEBRIS

Associated space launch

The Meteor-1 series was the first series of Soviet meteorological satellites.

METEOR 1-11 was lifted into orbit during the mission ‘Vostok 8A92M | Meteor-1 11 (23L)’, on board a Vostok 8A92M space rocket.

The launch took place on March 30, 1972, 2:05 p.m. from 41/1.

For more information about the launch, click the button.

Launch to space Vostok 8A92M | Meteor-1 11 (23L)
Vostok 8A92M | Meteor-1 11 (23L)

Agency: N/A

Status: Launch Successful

Launch date: March 30, 1972, 2:05 p.m. UTC

Rocket: Vostok 8A92M

Launch pad: 41/1

Location: Plesetsk Cosmodrome, Russian Federation

...

Latest news about this satellite

There are no fresh news available about this satellite. Check back as we update our databases every day.


Newsletter sign-up

Weekly statistics, charts and insights to help you stay on top of the space industry.